• In Deutschland
  • Länderverzeichnis
  • Für 7 Tage
  • Wassertemperatur
  • Satellitenkarten
  • Wetterkarte
  • Widgets
  • user-avatar
    Anmelden

    Stündliche Wetter Orange Walk

    Heute, 22 April, Sonntag

    Zeit Temperatur Niederschläge Wind Luftdruck Luftfeuchtigkeit
    00:00 +26°C° 0 mm 2 m/S 758 mmHg 94%
    01:00 +25°C° 0 mm 2 m/S 758 mmHg 95%
    02:00 +25°C° 0 mm 2 m/S 758 mmHg 95%
    03:00 +25°C° 0 mm 2 m/S 757 mmHg 96%
    04:00 +25°C° 0 mm 2 m/S 758 mmHg 96%
    05:00 +25°C° 0 mm 2 m/S 758 mmHg 96%
    06:00 +25°C° 0 mm 2 m/S 758 mmHg 95%
    07:00 +28°C° 0,1 mm 2 m/S 758 mmHg 85%
    08:00 +30°C° 0,1 mm 3 m/S 758 mmHg 74%
    09:00 +33°C° 0,1 mm 3 m/S 759 mmHg 64%
    10:00 +34°C° 0,1 mm 3 m/S 758 mmHg 59%
    11:00 +35°C° 0,1 mm 4 m/S 758 mmHg 54%
    12:00 +36°C° 0,1 mm 4 m/S 758 mmHg 49%
    13:00 +36°C° 0 mm 4 m/S 758 mmHg 49%
    14:00 +36°C° 0 mm 4 m/S 757 mmHg 49%
    15:00 +36°C° 0 mm 4 m/S 756 mmHg 50%
    16:00 +34°C° 0 mm 3 m/S 756 mmHg 57%
    17:00 +31°C° 0 mm 3 m/S 756 mmHg 64%
    18:00 +30°C° 0 mm 2 m/S 757 mmHg 72%
    19:00 +29°C° 0 mm 2 m/S 757 mmHg 79%
    20:00 +27°C° 0 mm 2 m/S 757 mmHg 86%
    21:00 +26°C° 0 mm 2 m/S 758 mmHg 93%
    22:00 +26°C° 0 mm 1 m/S 758 mmHg 94%
    23:00 +26°C° 0 mm 1 m/S 758 mmHg 96%

    Morgen, 23 April, Montag

    Zeit Temperatur Niederschläge Wind Luftdruck Luftfeuchtigkeit
    00:00 +26°C° 0 mm 1 m/S 758 mmHg 97%
    01:00 +26°C° 0 mm 1 m/S 758 mmHg 98%
    02:00 +25°C° 0 mm 1 m/S 758 mmHg 98%
    03:00 +25°C° 0 mm 1 m/S 757 mmHg 98%
    04:00 +26°C° 0 mm 1 m/S 758 mmHg 98%
    05:00 +26°C° 0 mm 1 m/S 758 mmHg 97%
    06:00 +26°C° 0 mm 1 m/S 758 mmHg 97%
    07:00 +28°C° 0 mm 1 m/S 759 mmHg 85%
    08:00 +30°C° 0 mm 2 m/S 759 mmHg 74%
    09:00 +32°C° 0 mm 2 m/S 759 mmHg 63%
    10:00 +34°C° 0 mm 2 m/S 759 mmHg 58%
    11:00 +36°C° 0 mm 3 m/S 759 mmHg 52%
    12:00 +37°C° 0 mm 3 m/S 759 mmHg 47%
    13:00 +37°C° 0 mm 3 m/S 758 mmHg 47%
    14:00 +37°C° 0 mm 3 m/S 757 mmHg 47%
    15:00 +36°C° 0 mm 3 m/S 757 mmHg 47%
    16:00 +35°C° 0 mm 3 m/S 757 mmHg 54%
    17:00 +33°C° 0 mm 3 m/S 757 mmHg 62%
    18:00 +30°C° 0 mm 3 m/S 757 mmHg 69%
    19:00 +29°C° 0 mm 2 m/S 758 mmHg 76%
    20:00 +28°C° 0 mm 2 m/S 758 mmHg 83%
    21:00 +27°C° 0 mm 2 m/S 759 mmHg 90%
    22:00 +26°C° 0 mm 2 m/S 759 mmHg 93%
    23:00 +26°C° 0 mm 1 m/S 759 mmHg 95%

    übermorgen, 24 April, Dienstag

    Zeit Temperatur Niederschläge Wind Luftdruck Luftfeuchtigkeit
    00:00 +26°C° 0 mm 1 m/S 759 mmHg 97%
    01:00 +25°C° 0 mm 1 m/S 758 mmHg 98%
    02:00 +25°C° 0 mm 1 m/S 758 mmHg 98%
    03:00 +25°C° 0 mm 1 m/S 758 mmHg 99%
    04:00 +25°C° 0 mm 1 m/S 758 mmHg 97%
    05:00 +26°C° 0 mm 1 m/S 758 mmHg 96%
    06:00 +26°C° 0 mm 1 m/S 759 mmHg 95%
    07:00 +28°C° 0,1 mm 1 m/S 759 mmHg 85%
    08:00 +30°C° 0,1 mm 1 m/S 759 mmHg 74%
    09:00 +32°C° 0,1 mm 2 m/S 760 mmHg 64%
    10:00 +35°C° 0 mm 2 m/S 760 mmHg 56%
    11:00 +36°C° 0 mm 2 m/S 759 mmHg 49%
    12:00 +37°C° 0 mm 2 m/S 759 mmHg 42%
    13:00 +37°C° 0 mm 3 m/S 758 mmHg 42%
    14:00 +37°C° 0 mm 3 m/S 757 mmHg 42%
    15:00 +37°C° 0 mm 3 m/S 757 mmHg 43%
    16:00 +35°C° 0 mm 3 m/S 757 mmHg 50%
    17:00 +33°C° 0 mm 3 m/S 757 mmHg 58%
    18:00 +30°C° 0 mm 3 m/S 757 mmHg 66%
    19:00 +29°C° 0 mm 2 m/S 758 mmHg 74%
    20:00 +28°C° 0 mm 2 m/S 758 mmHg 82%
    21:00 +27°C° 0 mm 2 m/S 759 mmHg 90%
    22:00 +26°C° 0 mm 2 m/S 759 mmHg 93%
    23:00 +26°C° 0 mm 1 m/S 759 mmHg 95%

    25 April, Mittwoch

    Zeit Temperatur Niederschläge Wind Luftdruck Luftfeuchtigkeit
    00:00 +25°C° 0 mm 1 m/S 759 mmHg 98%
    01:00 +25°C° 0 mm 1 m/S 758 mmHg 98%
    02:00 +25°C° 0 mm 1 m/S 758 mmHg 98%
    03:00 +25°C° 0 mm 1 m/S 758 mmHg 98%
    04:00 +25°C° 0 mm 1 m/S 758 mmHg 98%
    05:00 +26°C° 0 mm 1 m/S 758 mmHg 97%
    06:00 +26°C° 0 mm 1 m/S 758 mmHg 96%
    07:00 +28°C° 0,1 mm 1 m/S 759 mmHg 84%
    08:00 +30°C° 0,1 mm 1 m/S 759 mmHg 72%
    09:00 +32°C° 0,1 mm 2 m/S 760 mmHg 60%
    10:00 +35°C° 0 mm 2 m/S 759 mmHg 55%
    11:00 +36°C° 0 mm 2 m/S 759 mmHg 49%
    12:00 +37°C° 0 mm 3 m/S 758 mmHg 43%
    13:00 +37°C° 0 mm 3 m/S 757 mmHg 43%
    14:00 +37°C° 0 mm 3 m/S 757 mmHg 43%
    15:00 +37°C° 0 mm 3 m/S 756 mmHg 43%
    16:00 +35°C° 0 mm 3 m/S 756 mmHg 51%
    17:00 +33°C° 0 mm 3 m/S 756 mmHg 59%
    18:00 +30°C° 0 mm 3 m/S 757 mmHg 67%
    19:00 +29°C° 0 mm 2 m/S 757 mmHg 75%
    20:00 +28°C° 0 mm 2 m/S 758 mmHg 83%
    21:00 +27°C° 0 mm 2 m/S 758 mmHg 90%
    22:00 +26°C° 0 mm 2 m/S 758 mmHg 93%
    23:00 +26°C° 0 mm 2 m/S 758 mmHg 95%

    26 April, Donnerstag

    Zeit Temperatur Niederschläge Wind Luftdruck Luftfeuchtigkeit
    00:00 +25°C° 0 mm 1 m/S 757 mmHg 97%
    01:00 +25°C° 0 mm 1 m/S 757 mmHg 98%
    02:00 +25°C° 0 mm 1 m/S 757 mmHg 98%
    03:00 +25°C° 0 mm 1 m/S 757 mmHg 98%
    04:00 +25°C° 0 mm 1 m/S 757 mmHg 97%
    05:00 +25°C° 0 mm 1 m/S 757 mmHg 96%
    06:00 +26°C° 0 mm 1 m/S 758 mmHg 95%
    07:00 +28°C° 0 mm 1 m/S 758 mmHg 84%
    08:00 +30°C° 0 mm 2 m/S 759 mmHg 73%
    09:00 +32°C° 0 mm 2 m/S 759 mmHg 61%
    10:00 +34°C° 0 mm 2 m/S 759 mmHg 56%
    11:00 +36°C° 0 mm 2 m/S 758 mmHg 50%
    12:00 +37°C° 0 mm 2 m/S 757 mmHg 44%
    13:00 +37°C° 0 mm 3 m/S 757 mmHg 43%
    14:00 +37°C° 0 mm 3 m/S 756 mmHg 43%
    15:00 +37°C° 0 mm 3 m/S 755 mmHg 42%
    16:00 +35°C° 0 mm 3 m/S 756 mmHg 50%
    17:00 +33°C° 0 mm 3 m/S 756 mmHg 58%
    18:00 +31°C° 0 mm 3 m/S 756 mmHg 67%
    19:00 +29°C° 0 mm 3 m/S 757 mmHg 74%
    20:00 +28°C° 0 mm 2 m/S 757 mmHg 81%
    21:00 +27°C° 0 mm 2 m/S 758 mmHg 88%
    22:00 +27°C° 0,1 mm 2 m/S 758 mmHg 90%
    23:00 +26°C° 0,1 mm 2 m/S 758 mmHg 92%

    27 April, Freitag

    Zeit Temperatur Niederschläge Wind Luftdruck Luftfeuchtigkeit
    00:00 +26°C° 0,1 mm 2 m/S 757 mmHg 95%
    01:00 +26°C° 0 mm 1 m/S 757 mmHg 95%
    02:00 +26°C° 0 mm 1 m/S 757 mmHg 95%
    03:00 +26°C° 0 mm 1 m/S 756 mmHg 96%
    04:00 +26°C° 0 mm 1 m/S 757 mmHg 95%
    05:00 +26°C° 0 mm 1 m/S 757 mmHg 95%
    06:00 +26°C° 0 mm 1 m/S 757 mmHg 94%
    07:00 +28°C° 0,1 mm 1 m/S 758 mmHg 84%
    08:00 +30°C° 0,1 mm 2 m/S 758 mmHg 75%
    09:00 +31°C° 0,1 mm 2 m/S 758 mmHg 65%
    10:00 +34°C° 0,1 mm 2 m/S 758 mmHg 59%
    11:00 +35°C° 0,1 mm 2 m/S 758 mmHg 54%
    12:00 +36°C° 0,1 mm 2 m/S 757 mmHg 48%
    13:00 +36°C° 0,1 mm 2 m/S 757 mmHg 48%
    14:00 +36°C° 0,1 mm 3 m/S 756 mmHg 47%
    15:00 +36°C° 0,1 mm 3 m/S 756 mmHg 47%
    16:00 +35°C° 0 mm 3 m/S 756 mmHg 54%
    17:00 +33°C° 0 mm 3 m/S 756 mmHg 60%
    18:00 +30°C° 0 mm 3 m/S 756 mmHg 67%
    19:00 +29°C° 0 mm 3 m/S 757 mmHg 74%
    20:00 +28°C° 0 mm 2 m/S 757 mmHg 81%
    21:00 +27°C° 0 mm 2 m/S 758 mmHg 88%
    22:00 +27°C° 0 mm 2 m/S 758 mmHg 91%
    23:00 +26°C° 0 mm 2 m/S 758 mmHg 93%
    Mehr zeigen